Probability
23 19 12 6 3 2 2 3 3 2 1 0 0 0 0 0 0 0 0 0 0 0 0 0 0 1 2 4 3 2 3 3 2 0 0 0 0 0 0 0 0 0 0
16 12 8 4 2 1 1 1 1 1 0 0 0 0 0 0 0 0 0 0 0 0 0 0 0 1 2 3 3 3 5 6 5 3 1 0 0 0 0 0 0 0 0
8 5 3 1 0 0 0 0 0 0 0 0 0 0 0 0 0 0 0 0 0 0 0 0 1 1 1 1 3 7 10 12 11 7 4 1 0 0 0 0 0 0 0
4 3 1 0 0 0 0 0 0 0 0 0 0 0 0 0 0 0 0 0 0 0 0 0 0 0 0 0 3 9 15 17 14 10 5 2 0 0 0 0 0 0 0
2 2 1 0 0 0 0 0 0 0 0 0 0 0 0 0 0 0 0 0 0 0 0 0 0 0 0 0 3 10 18 21 19 13 6 2 0 0 0 0 0 0 0
1 1 1 0 0 0 0 0 0 0 0 0 0 0 0 0 0 0 0 0 0 0 0 0 0 0 0 1 4 11 17 23 26 22 14 8 5 2 0 0 0 0 0
1 1 0 0 0 0 0 0 0 0 0 0 0 0 0 0 0 0 0 0 0 0 0 0 0 0 0 0 3 9 14 21 29 31 25 18 12 6 2 1 0 0 0
1 1 0 0 0 0 0 0 0 0 0 0 0 0 0 0 0 0 0 0 0 0 0 0 0 0 0 0 1 4 8 15 24 29 27 20 13 8 4 2 0 0 0
0 0 0 0 0 0 0 0 0 0 0 0 0 0 0 0 0 0 0 0 0 0 0 0 0 0 0 0 0 1 3 8 16 24 25 17 9 5 4 3 1 0 0
0 0 0 0 0 0 0 0 0 0 0 0 0 0 0 0 0 0 0 0 0 0 0 0 0 0 0 0 0 0 0 2 9 19 23 17 7 3 4 5 4 3 2
0 0 0 0 0 0 0 0 0 0 0 0 0 0 0 0 0 0 0 0 0 0 0 0 0 0 0 0 0 0 0 0 3 9 14 13 10 7 6 7 7 7 6
0 0 0 0 0 0 0 0 0 0 0 0 0 0 0 0 0 0 0 0 0 0 0 0 0 0 0 0 0 0 0 0 0 2 3 6 8 8 8 7 6 6 6
0 0 0 0 0 0 0 0 0 0 0 0 0 0 0 0 0 0 0 0 0 0 0 0 0 0 0 0 0 0 0 0 0 0 0 1 3 4 4 4 2 2 2
0 0 0 0 0 0 0 0 0 0 0 0 0 0 0 0 0 0 0 0 0 0 0 0 0 0 0 0 0 0 0 0 0 0 0 0 0 0 1 1 0 0 0
0 0 0 0 0 0 0 0 0 0 0 0 0 0 0 0 0 0 0 0 0 0 0 0 0 0 0 0 0 0 0 0 0 0 0 0 0 0 0 0 0 0 0
0 0 0 0 0 0 0 0 0 0 0 0 0 0 0 0 0 0 0 0 0 0 0 0 0 0 0 0 0 0 0 0 0 0 0 0 0 0 0 0 0 0 0
0 0 0 0 0 0 0 0 0 0 0 0 0 0 0 0 0 0 0 0 0 0 0 0 0 0 0 0 0 0 0 0 0 0 0 0 0 0 0 0 0 0 0
0 0 0 0 0 0 0 0 0 0 0 0 0 0 0 0 0 0 0 0 0 0 0 0 0 0 0 0 0 0 0 0 0 0 0 0 0 0 0 0 0 0 0
0 0 0 0 0 0 0 0 0 0 0 0 0 0 0 0 0 0 0 0 0 0 0 0 0 0 0 0 0 0 0 0 0 0 0 0 0 0 0 0 0 0 0
0 0 0 0 0 0 0 0 0 0 0 0 0 0 0 0 0 0 0 0 0 0 0 0 0 0 0 0 0 0 0 0 0 0 0 0 0 0 0 0 0 0 0
0 0 0 0 0 0 0 0 0 0 0 0 0 0 0 0 0 0 0 0 0 0 0 0 0 0 0 0 0 0 0 0 0 0 0 0 0 0 0 0 0 0 0
0 0 0 0 0 0 0 0 0 0 0 0 0 0 0 0 0 0 0 0 0 0 0 0 0 0 0 0 0 0 0 0 0 0 0 0 0 0 0 0 0 0 0
0 0 0 0 0 0 0 0 0 0 0 0 0 0 0 0 0 0 0 0 0 0 0 0 0 0 0 0 0 0 0 0 0 0 0 0 0 0 0 0 0 0 0
0 0 0 0 0 0 0 0 0 0 0 0 0 0 0 0 0 0 0 0 0 0 0 0 0 0 0 0 0 0 0 0 0 0 0 0 0 0 0 0 0 0 0
0 0 0 0 0 0 0 0 0 0 0 0 0 0 0 0 0 0 0 0 0 0 0 0 0 0 0 0 0 0 0 0 0 0 0 0 0 0 0 0 0 0 0
0 0 0 0 0 0 0 0 0 0 0 0 0 0 0 0 0 0 0 0 0 0 0 0 0 0 0 0 0 0 0 0 0 0 0 0 0 0 0 0 0 0 0
Wind_Speed
7 7 6 6 6 6 6 6 6 7 7 7 7 8 8 8 7 7 5 12 13 12 13 13 14 14 16 17 18 18 18 19 19 18 18 17 17 17 17 16 15 15 14
8 7 7 6 6 5 5 5 5 5 4 4 5 6 6 6 7 8 6 8 12 11 11 11 12 12 13 14 15 16 17 18 19 19 19 18 17 17 17 17 17 16 14
9 8 6 5 5 4 5 4 4 3 3 3 4 4 4 5 6 7 7 6 6 10 12 12 12 12 13 14 15 14 15 16 18 19 20 20 19 18 17 18 18 17 15
9 6 5 4 4 3 3 3 3 2 3 3 2 2 3 3 5 6 6 6 5 6 9 13 13 12 14 15 16 15 14 15 17 18 19 20 20 19 18 18 18 18 17
7 5 4 4 4 3 3 3 2 2 2 3 3 3 3 3 5 5 6 7 6 6 6 9 13 13 15 17 17 17 16 15 16 17 18 20 20 20 19 19 18 18 18
6 5 4 4 4 3 3 3 3 2 2 2 2 2 3 4 4 5 6 6 5 6 7 7 7 8 14 15 15 16 17 15 15 16 17 19 20 20 19 19 19 19 19
6 6 4 4 5 4 4 4 3 3 2 1 1 2 3 3 4 4 5 4 5 4 4 5 5 5 6 11 13 15 16 17 15 15 16 17 18 19 20 20 19 19 19
6 6 6 5 5 4 4 4 4 3 2 2 3 1 2 3 2 1 1 2 3 2 3 4 4 5 6 5 7 13 15 16 16 15 15 16 16 17 19 20 20 19 19
4 4 5 5 6 6 5 5 5 5 4 2 2 3 3 3 2 2 1 2 2 2 3 4 5 5 6 6 6 10 13 13 14 15 15 14 15 15 16 18 19 19 19
2 1 3 4 5 5 5 6 6 4 5 3 2 2 2 3 2 2 2 2 3 4 5 5 5 6 5 5 6 9 12 12 13 13 14 14 13 13 13 13 15 16 17
5 5 2 1 4 4 5 6 6 6 5 4 4 3 2 2 2 2 3 3 3 4 5 6 6 5 5 5 5 8 11 11 11 11 12 13 13 13 12 11 11 12 12
3 4 4 3 2 3 5 6 7 8 6 5 4 4 4 3 4 4 4 3 4 4 5 5 5 4 4 4 6 8 10 10 11 11 11 11 13 13 13 12 10 9 8
2 3 3 2 2 3 5 6 7 7 8 7 6 5 5 4 3 3 3 3 3 3 4 3 2 3 3 3 3 5 6 8 8 9 9 10 12 14 13 12 11 9 8
3 3 3 2 3 3 4 5 6 7 7 8 8 7 5 5 5 5 4 3 2 2 2 3 2 3 3 3 4 4 2 2 4 6 7 8 9 11 11 11 9 8 7
4 3 3 3 3 3 3 4 5 7 7 8 8 8 6 5 5 5 5 4 3 2 2 2 1 2 2 3 4 3 3 4 5 6 7 8 9 9 10 10 9 9 8
5 5 4 4 3 3 3 3 4 5 7 7 6 7 7 5 5 5 5 5 5 4 3 2 1 0 1 2 4 4 6 9 9 10 11 12 13 13 13 13 13 12 11
6 6 6 5 4 4 3 3 3 4 6 7 7 8 9 7 6 6 6 6 6 6 6 3 1 1 2 3 3 4 5 6 6 12 13 14 15 14 14 14 15 14 13
8 8 7 6 6 6 4 4 4 4 4 6 6 7 9 7 9 7 6 7 6 7 6 5 2 2 2 5 5 5 5 6 6 12 15 15 16 15 15 15 15 15 14
10 9 8 8 8 7 6 6 6 5 5 5 5 6 7 7 9 7 8 7 6 6 6 5 4 2 2 4 5 5 7 6 7 10 14 14 15 15 15 15 15 14 14
11 10 10 10 9 8 7 7 7 6 6 6 5 5 6 6 8 8 7 8 7 7 6 5 5 4 2 5 5 6 5 4 5 6 9 11 14 16 16 15 15 16 15
12 11 10 9 8 7 7 8 8 7 7 7 6 6 5 7 9 8 7 7 8 7 7 6 6 5 4 6 6 5 7 7 6 4 7 7 8 8 10 13 15 17 17
10 10 10 10 9 7 10 12 9 7 7 7 6 6 5 7 9 11 13 13 12 10 10 8 7 7 8 7 7 9 9 8 5 3 6 6 6 8 7 7 12 16 17
9 9 10 10 9 10 12 12 11 7 7 7 7 6 6 6 7 7 9 13 15 14 13 10 10 10 10 10 11 11 9 6 6 7 7 7 6 8 6 8 12 14 15
7 7 8 9 8 9 12 11 11 7 7 8 8 8 7 7 7 7 7 8 9 11 12 10 9 9 9 11 12 10 11 10 9 4 3 6 4 5 6 7 10 12 13
7 7 6 8 8 8 10 10 8 4 6 8 8 8 8 8 9 9 8 9 8 7 8 11 10 10 14 17 16 13 12 13 10 4 2 5 5 5 5 5 7 10 11
7 7 8 8 8 8 9 10 8 4 6 6 6 6 8 8 9 9 9 9 9 8 7 7 8 12 15 19 21 17 15 14 13 6 3 5 6 5 5 3 4 5 6
Wind_Direction
229 227 227 227 225 225 230 234 230 227 228 229 230 229 230 230 234 236 247 256 259 254 246 240 233 233 233 230 226 221 215 210 205 205 208 211 209 205 202 202 203 201 198
230 227 229 227 224 221 221 224 222 219 221 224 232 229 227 223 229 235 240 253 258 262 257 253 248 241 235 231 230 224 219 215 209 207 209 210 211 209 207 205 206 206 203
230 226 227 224 220 213 211 208 207 194 195 207 226 226 226 225 229 238 246 251 260 264 263 259 255 250 240 234 233 229 222 218 213 211 211 211 210 209 209 208 207 208 207
232 223 222 219 202 188 181 178 173 174 189 198 210 220 223 229 238 243 247 249 251 256 260 259 256 249 244 239 234 231 227 222 216 213 213 212 211 209 209 210 210 208 207
232 209 210 200 175 167 172 172 161 169 181 194 213 226 236 241 247 252 251 251 247 247 249 255 256 253 249 245 236 232 231 226 219 216 216 214 212 209 209 210 211 210 209
220 196 194 183 167 162 170 171 163 164 179 187 222 250 259 262 266 262 260 260 257 254 251 250 250 251 248 246 239 234 233 230 223 218 218 217 215 211 208 210 211 212 212
216 195 188 176 173 176 180 170 155 166 177 141 139 294 293 260 254 253 251 252 261 269 268 259 250 243 244 240 237 235 234 233 228 221 219 219 219 216 210 210 211 212 213
220 207 190 181 175 169 170 173 160 157 173 168 163 159 317 328 311 297 277 263 268 286 296 292 273 252 242 237 234 232 234 233 229 224 221 220 221 220 216 211 210 211 212
228 213 200 187 179 174 181 185 176 167 175 189 187 162 174 232 299 309 289 292 297 299 303 301 290 273 252 236 234 232 232 230 229 224 217 213 217 219 217 214 211 210 212
328 257 205 197 192 188 187 189 186 177 162 177 196 207 195 177 182 304 315 322 310 292 295 295 291 283 266 247 236 229 228 227 228 227 218 210 207 207 208 213 214 213 214
17 15 8 237 213 206 204 193 186 187 177 172 177 177 186 190 185 202 276 312 311 285 280 282 283 280 274 257 247 240 233 227 225 224 219 210 201 195 196 202 211 214 218
359 16 16 3 277 229 216 209 200 195 194 183 184 183 176 174 184 192 228 262 289 288 289 282 279 284 286 273 261 254 241 232 227 223 217 206 194 187 188 194 197 199 210
309 328 346 339 316 264 234 212 206 207 199 196 194 197 198 201 180 177 205 243 268 289 302 304 310 324 325 325 307 288 254 234 224 218 209 198 192 187 184 186 191 194 200
260 273 294 299 305 294 263 223 213 212 205 205 205 201 200 208 197 191 194 204 256 269 274 290 329 360 7 6 12 2 336 234 205 196 187 182 178 175 174 174 178 179 185
250 253 268 281 293 304 296 256 229 218 210 211 211 208 208 207 198 202 202 199 214 250 275 282 308 31 30 22 16 33 46 74 107 125 126 125 126 133 137 141 140 139 142
245 254 258 259 265 271 281 277 250 230 220 220 214 214 216 211 204 201 201 205 208 221 246 244 247 40 72 62 45 60 70 76 83 96 101 104 105 105 107 110 111 113 114
239 241 245 250 255 258 254 257 265 259 239 231 223 220 225 216 210 204 198 198 204 211 238 251 232 205 150 126 89 77 73 69 76 85 91 95 96 97 97 97 97 96 96
234 233 236 240 247 249 241 236 243 253 259 251 236 229 233 226 221 213 202 202 203 205 219 242 234 208 167 147 123 100 83 75 75 82 86 91 93 93 92 91 91 91 91
232 229 224 230 237 239 239 238 236 234 234 243 240 234 235 230 229 219 211 207 202 200 206 223 233 209 152 144 127 103 91 83 78 82 81 83 90 93 94 94 94 92 91
228 226 222 224 229 233 235 239 238 239 235 230 230 234 235 234 237 229 218 213 196 193 198 213 224 214 167 149 140 131 112 89 82 80 83 88 95 96 99 103 105 103 98
232 224 219 218 222 225 232 232 232 235 234 233 229 228 233 244 247 239 225 213 193 193 194 204 212 204 180 165 156 141 128 111 83 90 97 88 92 92 95 103 107 109 105
237 222 215 213 212 219 227 227 224 227 229 231 237 239 242 254 257 250 237 219 198 192 195 198 206 206 190 166 150 148 144 140 122 132 105 88 88 88 86 95 107 111 109
242 227 221 211 210 219 227 234 235 227 228 231 233 240 252 252 260 262 249 227 210 202 194 193 203 204 184 168 156 157 156 138 127 147 123 98 87 85 83 92 103 107 109
251 235 227 220 211 222 226 233 241 234 232 236 233 231 239 256 260 256 244 225 213 209 208 207 212 201 182 167 159 149 136 113 103 104 103 108 103 92 89 91 99 107 111
256 244 233 225 215 224 230 235 237 224 234 240 236 229 231 249 257 245 230 219 211 211 211 209 206 187 163 153 145 135 138 134 132 119 87 106 119 106 90 88 95 107 116
255 248 242 229 219 224 231 236 231 214 234 241 237 230 231 245 257 240 223 213 207 200 183 175 176 164 157 153 152 154 152 147 142 136 155 119 141 129 110 101 106 113 119